{"data":{"norad_id":68087,"epoch":"2026-09-19T06:14:29.070816Z","epoch_age_seconds":162576,"freshness":"FRESH","line1":"1 68087U 26042U   26262.26005869  .00019969  00000+0  60043-3 0  9996","line2":"2 68087  53.1604 355.1918 0001870  97.7339 262.3876 15.34406895 32000","mean_motion":15.34406895,"eccentricity":0.000187,"inclination_deg":53.1604,"raan_deg":355.1918,"arg_perigee_deg":97.7339,"mean_anomaly_deg":262.3876,"bstar":0.00060043,"rev_number":3200,"period_min":93.847336367711,"perigee_km":461.40351359812,"apogee_km":463.96198018346,"semimajor_km":6840.8197468908,"source":"CELESTRAK","updated_at":"2026-09-20T09:00:43.781576Z"}}